Weather in Paletskoye

Russia / Novosibirsk Oblast     54°07′12″N   78°09′05″E
temp.,
°C
wind,
m/s
gust,
m/s
humid.,
%
clouds,
%
prec.,
mm/h
press.,
hPa
HPBL,
m
23 may, mon
mon2301:00+13wsw61336100 0.1 1011787
04:00+11wsw6133741 0.0 1015631
07:00+10sw510490 0.0 1018481
10:00+14sw68405 0.0 10201262
13:00+18sw67302 0.0 10202056
16:00+20sw56285 0.0 10202299
19:00+21ssw46275 0.0 10192323
22:00+16sse443923 0.0 101944
24 may, tue
tue2401:00+14sse493811 0.0 1020135
04:00+13sse46390 0.0 101988
07:00+13sse35430 0.0 1020104
10:00+20sse44320 0.0 1020492
13:00+23se2225100 0.0 10191652
16:00+25ene3326100 0.0 10181994
19:00+24ene4431100 0.0 10171166
22:00+19ene3443100 0.0 101856
25 may, wed
wed2501:00+17ne224994 0.0 101717
04:00+15ne335373 0.0 101734
07:00+16nne375692 0.0 1018137
10:00+22ne574295 0.0 1018552
13:00+26ene67310 0.0 10171603
16:00+27ene67290 0.0 10162094
19:00+27ene68340 0.0 10151937
22:00+20e22531 0.0 101612
26 may, thu
thu2601:00+18e3354100 0.0 101636
04:00+17ene475772 0.0 101699
07:00+16ene31064100 0.0 1016247
10:00+23e812470 0.0 1015780
13:00+27e89360 0.0 10141720
16:00+29e77300 0.0 10122092
19:00+28e66320 0.0 10112031
22:00+21e613520 0.0 1011300
27 may, fri
fri2701:00+19ese615530 0.0 1010299
04:00+17ese411560 0.0 1010236
07:00+18ese49600 0.0 1010206
10:00+24sse334775 0.0 1011512
13:00+27w334371 0.1 10111246
16:00+28w433966 0.0 10111777
19:00+26nnw55480 0.0 10111053
22:00+20n410540 0.0 1012276